Flag Weather past 2 weeks in Fukuoka, Japan

Now
59 °F

Partly sunny.


Feels Like: 58 °F
Forecast: 55 / 65 °F
Wind: 8 mph from South

Location: Fukuoka Airport

Current Time: Nov 28, 2014 at 9:21:09 AM

Latest Report: Nov 28, 2014 at 9:00 AM


Visibility: N/A

Pressure: 30.09 "Hg

Humidity: 63%

Dew point: 46 °F

Location of FukuokaLocation

Historic Weather in Fukuoka — Graph

°F

Fukuoka temperature yesterday

Maximum temperature yesterday: 64 °F (at 11:30 AM)
Minimum temperature yesterday: 46 °F (at 6:30 AM)
Average temperature yesterday: 55 °F

Past Weeks' High & Low Weather Summary

 TemperatureHumidityPressure
High72 °F (Nov 24, 12:00 PM)100% (Nov 22, 6:00 AM)30.39 "Hg (Nov 22, 6:00 AM)
Low43 °F (Nov 19, 7:00 AM)36% (Nov 15, 3:00 PM)29.77 "Hg (Nov 25, 4:00 AM)
Average55 °F69%30.17 "Hg
* Reported Nov 13 8:00 AM — Nov 28 8:00 AM, Fukuoka, Weather by CustomWeather, © 2014

Note: Actual official high and low records may vary slightly from our data, if they occured in-between our weather recording intervals... More about our weather records

Advertising

Fukuoka weather history for previous 24 hours

 ConditionsComfort  
Time TempWeatherWind HumidityBarometerVisibility
8:00 AM
Nov 28
55 °FScattered clouds.15 mph77%30.12 "HgN/A
7:30 AM52 °FPassing clouds.15 mph82%30.12 "HgN/A
7:00 AM52 °FPassing clouds.9 mph82%30.12 "HgN/A
6:30 AM52 °FPassing clouds.14 mph82%30.12 "HgN/A
6:00 AM52 °FPassing clouds.13 mph82%30.12 "HgN/A
5:30 AM54 °FPassing clouds.12 mph77%30.12 "HgN/A
5:00 AM54 °FPassing clouds.1 mph82%30.12 "HgN/A
4:30 AM54 °FPassing clouds.8 mph77%30.12 "HgN/A
4:00 AM52 °FPassing clouds.3 mph82%30.12 "HgN/A
3:30 AM52 °FPassing clouds.2 mph82%30.12 "HgN/A
3:00 AM52 °FPassing clouds.5 mph82%30.15 "HgN/A
2:30 AM52 °FPassing clouds.6 mph82%30.15 "HgN/A
2:00 AM50 °FPassing clouds.6 mph88%30.15 "HgN/A
1:30 AM50 °FPassing clouds.6 mph88%30.15 "HgN/A
1:00 AM50 °FPassing clouds.3 mph88%30.15 "HgN/A
12:30 AM52 °FPassing clouds.2 mph82%30.15 "HgN/A
12:00 AM50 °FPassing clouds.3 mph88%30.15 "HgN/A
11:30 PM
Nov 27
52 °FPassing clouds.1 mph82%30.18 "HgN/A
11:00 PM50 °FPassing clouds.2 mph88%30.18 "HgN/A
10:30 PM50 °FPassing clouds.2 mph88%30.18 "HgN/A
10:00 PM54 °FPassing clouds.2 mph77%30.18 "HgN/A
9:30 PM54 °FPassing clouds.6 mph77%30.18 "HgN/A
9:00 PM52 °FPassing clouds.3 mph77%30.18 "HgN/A
8:30 PM55 °FPassing clouds.3 mph72%30.18 "HgN/A
8:00 PM55 °FPassing clouds.2 mph72%30.18 "HgN/A
7:30 PM55 °FPassing clouds.5 mph67%30.18 "HgN/A
7:00 PM57 °FPassing clouds.5 mph63%30.18 "HgN/A
6:30 PM59 °FPassing clouds.3 mph59%30.18 "HgN/A
6:00 PM59 °FPassing clouds.5 mph59%30.18 "HgN/A
5:30 PM61 °FPassing clouds.6 mph55%30.15 "HgN/A
5:00 PM61 °FPassing clouds.6 mph55%30.15 "HgN/A
4:30 PM63 °FPassing clouds.8 mph52%30.15 "HgN/A
4:00 PM63 °FPassing clouds.10 mph52%30.15 "HgN/A
3:30 PM63 °FPassing clouds.9 mph49%30.15 "HgN/A
3:00 PM63 °FPartly sunny.8 mph49%30.15 "HgN/A
2:30 PM63 °FPartly sunny.8 mph52%30.15 "HgN/A
2:00 PM63 °FPartly sunny.8 mph56%30.15 "HgN/A
1:30 PM64 °FPartly sunny.6 mph52%30.15 "HgN/A
1:00 PM63 °FScattered clouds.8 mph52%30.15 "HgN/A
12:30 PM64 °FPassing clouds.6 mph46%30.15 "HgN/A
12:00 PM64 °FPassing clouds.8 mph52%30.18 "HgN/A
11:30 AM64 °FPassing clouds.7 mph52%30.18 "HgN/A
11:00 AM63 °FPassing clouds.3 mph56%30.18 "HgN/A
10:30 AM61 °FPassing clouds.3 mph63%30.21 "HgN/A
10:00 AM57 °FPassing clouds.6 mph77%30.24 "HgN/A
9:30 AM57 °FPassing clouds.3 mph77%30.24 "HgN/A
Weather by CustomWeather, © 2014

See weather overviewHow to use our weather pages